Key West, FL

5:36 PM EDT on June 23, 2017 (GMT -0400)
Key West International

Weather History for KEYW - November, 2011

Change the Weather History Date:

Friday, November 18, 2011

  Actual Average Record
Temperature  
Mean Temperature 79 °F 75 °F  
Max Temperature 83 °F 80 °F 90 °F (1886)
Min Temperature 75 °F 71 °F 56 °F (1923)
Degree Days  
Heating Degree Days 0 0  
Month to date heating degree days 0 0  
Since 1 July heating degree days 0 0  
Cooling Degree Days 14 10  
Month to date cooling degree days 205 210  
Year to date cooling degree days 4718 4418  
Growing Degree Days 28 (Base 50)    
Moisture  
Dew Point 73 °F    
Average Humidity 80    
Maximum Humidity 94    
Minimum Humidity 65    
Precipitation  
Precipitation 0.05 in 0.07 in 2.03 in (1941)
Month to date precipitation 0.06 1.46  
Year to date precipitation 42.16 36.77  
Snow  
Snow 0.00 in - - ()
Month to date snowfall 0.0  
Since 1 July snowfall 0.0  
Since 1 September snowfall 0.0  
Snow Depth 0.00 in    
Sea Level Pressure  
Sea Level Pressure 30.08 in    
Wind  
Wind Speed 9 mph (NE)    
Max Wind Speed 20 mph    
Max Gust Speed 24 mph    
Visibility 10 miles    
Events Rain    
T = Trace of Precipitation, MM = Missing Value Source: NWS Daily Summary

Daily Weather History Graph

Daily Weather History Graph

Search for Another Location

Airport or City:

Trip Planner

Search our weather history database for the weather conditions in past years. The results will help you decide how hot, cold, wet, or windy it might be!

Date:

Astronomy

Nov. 18, 2011 Rise Set
Actual Time 6:44 AM EST 5:39 PM EST
Civil Twilight 6:20 AM EST 6:03 PM EST
Nautical Twilight 5:53 AM EST 6:31 PM EST
Astronomical Twilight 5:25 AM EST 6:58 PM EST
Moon No Moon Rise 12:42 PM EST (11/18)
Length of Visible Light 11h 42m
Length of Day
10h 54m
Waning Gibbous, 49% of the Moon is Illuminated
Nov 18
Waning Gibbous
Nov 25
New
Dec 2
First Quarter
Dec 10
Full
Dec 17
Last Quarter

Hourly Weather History & Observations

Time (EST) Temp. Heat Index Dew Point Humidity Pressure Visibility Wind Dir Wind Speed Gust Speed Precip Events Conditions
12:53 AM 75.9 °F - 73.0 °F 91% 30.05 in 10.0 mi NNE 4.6 mph - N/A   Overcast
1:53 AM 75.9 °F - 72.0 °F 87% 30.05 in 10.0 mi NNE 8.1 mph - 0.00 in   Mostly Cloudy
2:04 AM 75.2 °F - 71.6 °F 89% 30.05 in 10.0 mi NNE 6.9 mph - N/A   Overcast
2:37 AM 75.2 °F - 71.6 °F 89% 30.04 in 10.0 mi ENE 4.6 mph - 0.00 in Rain Light Rain
2:53 AM 75.0 °F - 71.1 °F 87% 30.04 in 10.0 mi ENE 3.5 mph - 0.00 in   Overcast
3:53 AM 75.0 °F - 72.0 °F 90% 30.03 in 10.0 mi NNW 5.8 mph - 0.00 in Rain Light Rain
4:53 AM 75.2 °F - 71.6 °F 89% 30.02 in 10.0 mi North 8.1 mph - N/A   Overcast
5:10 AM 75.2 °F - 73.4 °F 94% 30.03 in 10.0 mi NNE 9.2 mph - N/A   Overcast
5:53 AM 75.9 °F - 73.0 °F 91% 30.04 in 10.0 mi NNE 6.9 mph - N/A   Overcast
6:45 AM 75.2 °F - 73.4 °F 94% 30.06 in 10.0 mi NNE 9.2 mph - N/A   Overcast
6:53 AM 75.9 °F - 73.0 °F 91% 30.06 in 10.0 mi NNE 9.2 mph - N/A   Overcast
7:05 AM 75.2 °F - 73.4 °F 94% 30.06 in 10.0 mi NNE 8.1 mph - N/A   Overcast
7:21 AM 75.2 °F - 73.4 °F 94% 30.07 in 10.0 mi NNE 8.1 mph - N/A   Overcast
7:53 AM 77.0 °F - 73.0 °F 88% 30.08 in 10.0 mi NE 6.9 mph - N/A   Mostly Cloudy
8:07 AM 77.0 °F - 73.4 °F 89% 30.08 in 10.0 mi NNE 10.4 mph - N/A   Mostly Cloudy
8:53 AM 78.1 °F - 73.0 °F 84% 30.09 in 10.0 mi NE 5.8 mph - N/A   Scattered Clouds
9:27 AM 80.6 °F 85.4 °F 73.4 °F 79% 30.10 in 10.0 mi NE 8.1 mph - N/A   Mostly Cloudy
9:49 AM 80.6 °F 85.4 °F 73.4 °F 79% 30.11 in 10.0 mi NE 11.5 mph - N/A   Scattered Clouds
9:53 AM 80.1 °F 84.2 °F 73.0 °F 79% 30.11 in 10.0 mi NE 9.2 mph - N/A   Mostly Cloudy
10:02 AM 80.6 °F 85.4 °F 73.4 °F 79% 30.11 in 10.0 mi ENE 11.5 mph 17.3 mph N/A   Scattered Clouds
10:53 AM 81.0 °F 85.8 °F 73.0 °F 77% 30.11 in 10.0 mi NE 9.2 mph - N/A   Scattered Clouds
11:42 AM 80.6 °F 85.4 °F 73.4 °F 79% 30.09 in 10.0 mi NNE 12.7 mph - N/A   Mostly Cloudy
11:53 AM 81.0 °F 85.8 °F 73.0 °F 77% 30.09 in 10.0 mi NNE 12.7 mph 17.3 mph N/A   Mostly Cloudy
12:53 PM 81.0 °F 86.2 °F 73.9 °F 79% 30.07 in 10.0 mi NE 12.7 mph 18.4 mph N/A   Mostly Cloudy
1:13 PM 80.6 °F 84.6 °F 71.6 °F 74% 30.06 in 10.0 mi NE 12.7 mph - N/A   Mostly Cloudy
1:53 PM 80.1 °F 84.2 °F 73.0 °F 79% 30.06 in 10.0 mi NE 10.4 mph - N/A   Mostly Cloudy
2:12 PM 80.6 °F 85.4 °F 73.4 °F 79% 30.05 in 10.0 mi NNE 12.7 mph 19.6 mph N/A   Mostly Cloudy
2:53 PM 79.0 °F - 73.0 °F 82% 30.05 in 10.0 mi NE 8.1 mph - 0.00 in   Overcast
3:32 PM 80.6 °F 84.6 °F 71.6 °F 74% 30.05 in 10.0 mi ENE 8.1 mph 18.4 mph N/A   Scattered Clouds
3:53 PM 82.0 °F 85.9 °F 70.0 °F 67% 30.05 in 10.0 mi East 11.5 mph 17.3 mph N/A   Partly Cloudy
4:09 PM 82.4 °F 87.2 °F 71.6 °F 70% 30.05 in 10.0 mi ENE 10.4 mph 17.3 mph N/A   Mostly Cloudy
4:36 PM 80.6 °F 84.6 °F 71.6 °F 74% 30.06 in 10.0 mi East 9.2 mph - N/A   Mostly Cloudy
4:53 PM 80.1 °F 83.6 °F 71.1 °F 74% 30.06 in 10.0 mi ENE 9.2 mph - N/A   Scattered Clouds
5:13 PM 78.8 °F - 73.4 °F 83% 30.06 in 10.0 mi Variable 5.8 mph - N/A   Mostly Cloudy
5:53 PM 75.9 °F - 73.0 °F 91% 30.07 in 8.0 mi NNE 12.7 mph 20.7 mph 0.05 in Rain Light Rain
6:50 PM 75.2 °F - 73.4 °F 94% 30.09 in 10.0 mi NE 11.5 mph 18.4 mph 0.00 in   Overcast
6:53 PM 75.9 °F - 73.0 °F 91% 30.09 in 10.0 mi ENE 12.7 mph 18.4 mph 0.00 in   Overcast
7:53 PM 75.9 °F - 73.0 °F 91% 30.11 in 10.0 mi NE 9.2 mph - 0.00 in Rain Light Rain
8:18 PM 75.2 °F - 73.4 °F 94% 30.11 in 10.0 mi NNE 10.4 mph 17.3 mph 0.00 in   Overcast
8:31 PM 75.2 °F - 73.4 °F 94% 30.11 in 10.0 mi NE 10.4 mph 18.4 mph 0.00 in   Overcast
8:51 PM 75.2 °F - 73.4 °F 94% 30.11 in 10.0 mi NE 13.8 mph - 0.00 in   Overcast
8:53 PM 75.9 °F - 73.0 °F 91% 30.11 in 10.0 mi NE 10.4 mph - 0.00 in   Overcast
9:01 PM 75.2 °F - 73.4 °F 94% 30.11 in 10.0 mi NE 10.4 mph 19.6 mph N/A   Overcast
9:53 PM 75.9 °F - 73.0 °F 91% 30.11 in 10.0 mi NNE 11.5 mph 17.3 mph N/A   Overcast
10:12 PM 75.2 °F - 71.6 °F 89% 30.12 in 10.0 mi NNE 8.1 mph - 0.00 in   Overcast
10:53 PM 75.0 °F - 73.0 °F 94% 30.12 in 10.0 mi NE 6.9 mph - 0.00 in   Overcast
11:45 PM 75.2 °F - 71.6 °F 89% 30.11 in 10.0 mi East 9.2 mph - N/A   Scattered Clouds
11:53 PM 75.9 °F - 72.0 °F 87% 30.11 in 10.0 mi ENE 8.1 mph - N/A   Partly Cloudy